Weather History for Minden, LA

Change the Weather History Date:

Tuesday, November 26, 2013

  Actual Average (KBAD) Record (KBAD)
Temperature  
Mean Temperature 38 °F -  
Max Temperature 41 °F 61 °F 78 °F (2001)
Min Temperature 34 °F 42 °F 31 °F (2010)
Degree Days  
Heating Degree Days 28    
Moisture  
Dew Point 36 °F    
Average Humidity 94    
Maximum Humidity 97    
Minimum Humidity 91    
Precipitation  
Precipitation 0.14 in - - ()
Sea Level Pressure  
Sea Level Pressure 30.09 in    
Wind  
Wind Speed 8 mph (NNW)    
Max Wind Speed 13 mph    
Max Gust Speed 20 mph    
Visibility 5 miles    
Events Fog , Rain    
Averages and records for this station are not official NWS values.
T = Trace of Precipitation, MM = Missing Value Source: NWS Daily Summary

Daily Weather History Graph

Daily Weather History Graph

Search for Another Location

Airport:

Trip Planner

Search our weather history database for the weather conditions in past years. The results will help you decide how hot, cold, wet, or windy it might be!

Date:

Astronomy

Nov. 26, 2013 Rise Set
Actual Time 6:53 AM CST 5:07 PM CST
Civil Twilight 6:26 AM CST 5:34 PM CST
Nautical Twilight 5:56 AM CST 6:04 PM CST
Astronomical Twilight 5:26 AM CST 6:34 PM CST
Moon 12:18 AM CST (11/26) 12:55 PM CST (11/26)
Length of Visible Light 11h 07m
Length of Day
10h 14m
Last Quarter, 41% of the Moon is Illuminated
Nov 26
Last Quarter
Dec 2
New
Dec 9
First Quarter
Dec 17
Full
Dec 25
Last Quarter

Hourly Weather History & Observations

Time (CST) Temp. Windchill Dew Point Humidity Pressure Visibility Wind Dir Wind Speed Gust Speed Precip Events Conditions
12:15 AM 36.0 °F 28.0 °F 34.7 °F 95% 30.09 in 10.0 mi North 11.5 mph - N/A   Overcast
12:35 AM 36.0 °F 30.3 °F 34.7 °F 95% 30.05 in 4.0 mi North 6.9 mph - N/A   Overcast
12:55 AM 36.1 °F 29.3 °F 34.7 °F 94% 30.04 in 3.0 mi North 9.2 mph 16.1 mph N/A   Overcast
1:15 AM 36.1 °F 29.3 °F 34.9 °F 95% 30.03 in 3.0 mi North 9.2 mph - N/A   Overcast
1:35 AM 36.3 °F 31.6 °F 35.1 °F 95% 30.04 in 4.0 mi North 5.8 mph - N/A   Overcast
1:55 AM 36.3 °F 29.5 °F 35.1 °F 95% 30.03 in 4.0 mi NNW 9.2 mph - N/A   Overcast
2:15 AM 36.5 °F 30.3 °F 35.1 °F 95% 30.03 in 3.0 mi NNW 8.1 mph 18.4 mph N/A   Overcast
2:35 AM 36.1 °F 27.7 °F 34.9 °F 95% 30.03 in 2.5 mi NNW 12.7 mph 17.3 mph N/A   Overcast
2:55 AM 36.1 °F 28.2 °F 34.9 °F 95% 30.02 in 2.0 mi NNW 11.5 mph - N/A   Overcast
3:15 AM 36.1 °F 28.7 °F 34.9 °F 95% 30.03 in 2.5 mi North 10.4 mph 16.1 mph N/A Rain Light Rain
3:35 AM 36.5 °F 30.3 °F 35.1 °F 95% 30.05 in 2.0 mi NNW 8.1 mph - N/A   Light Drizzle
3:55 AM 36.5 °F 30.3 °F 35.1 °F 95% 30.05 in 2.5 mi NNW 8.1 mph - N/A   Light Drizzle
4:15 AM 36.5 °F 30.3 °F 35.1 °F 95% 30.03 in 3.0 mi North 8.1 mph 16.1 mph N/A   Overcast
4:35 AM 36.5 °F 31.8 °F 35.1 °F 95% 30.05 in 5.0 mi North 5.8 mph - N/A   Overcast
4:55 AM 36.7 °F 32.0 °F 35.2 °F 95% 30.06 in 10.0 mi NNW 5.8 mph - N/A   Overcast
5:15 AM 36.9 °F 30.7 °F 35.6 °F 95% 30.06 in 10.0 mi North 8.1 mph - N/A   Overcast
5:35 AM 36.9 °F 29.6 °F 35.6 °F 95% 30.06 in 10.0 mi NNW 10.4 mph - N/A   Overcast
5:55 AM 37.0 °F 31.0 °F 35.6 °F 95% 30.08 in 7.0 mi NNW 8.1 mph - N/A   Overcast
6:15 AM 37.2 °F 30.0 °F 35.6 °F 94% 30.07 in 5.0 mi NNW 10.4 mph - N/A   Overcast
6:35 AM 37.0 °F 28.9 °F 35.6 °F 95% 30.06 in 3.0 mi NNW 12.7 mph 16.1 mph N/A   Overcast
6:55 AM 37.0 °F 29.8 °F 35.6 °F 95% 30.06 in 4.0 mi North 10.4 mph 19.6 mph N/A   Overcast
7:15 AM 37.4 °F 31.4 °F 35.6 °F 93% 30.08 in 10.0 mi North 8.1 mph - N/A   Overcast
7:35 AM 37.4 °F 30.3 °F 35.8 °F 94% 30.09 in 10.0 mi NNW 10.4 mph - N/A   Overcast
7:55 AM 37.4 °F 30.8 °F 35.6 °F 93% 30.09 in 10.0 mi North 9.2 mph - N/A   Overcast
8:15 AM 37.4 °F 30.8 °F 35.6 °F 93% 30.07 in 4.0 mi NNW 9.2 mph - N/A   Light Drizzle
8:35 AM 37.4 °F 30.3 °F 35.6 °F 93% 30.08 in 2.5 mi NNW 10.4 mph - N/A Rain Light Rain
8:55 AM 37.4 °F 30.3 °F 35.8 °F 94% 30.09 in 5.0 mi North 10.4 mph - N/A Rain Light Rain
9:15 AM 37.6 °F 31.6 °F 36.0 °F 94% 30.08 in 7.0 mi North 8.1 mph - N/A Rain Light Rain
9:35 AM 37.9 °F 32.7 °F 36.1 °F 93% 30.11 in 7.0 mi North 6.9 mph - N/A   Drizzle
9:55 AM 38.3 °F 32.5 °F 36.5 °F 93% 30.10 in 5.0 mi North 8.1 mph - N/A Rain Light Rain
10:15 AM 38.3 °F 33.9 °F 36.7 °F 94% 30.10 in 5.0 mi North 5.8 mph - N/A   Drizzle
10:35 AM 38.3 °F 32.5 °F 36.5 °F 93% 30.08 in 5.0 mi North 8.1 mph - N/A Rain Light Rain
10:55 AM 38.7 °F 32.4 °F 36.9 °F 93% 30.07 in 5.0 mi North 9.2 mph - N/A   Light Drizzle
11:15 AM 38.5 °F 30.7 °F 36.5 °F 93% 30.05 in 7.0 mi North 12.7 mph 19.6 mph N/A   Overcast
11:35 AM 38.7 °F 32.4 °F 36.7 °F 93% 30.06 in 5.0 mi NNW 9.2 mph - N/A   Overcast
11:55 AM 38.5 °F 31.6 °F 36.0 °F 91% 30.05 in 10.0 mi NNW 10.4 mph 17.3 mph N/A   Overcast
12:15 PM 38.8 °F 32.6 °F 36.7 °F 92% 30.04 in 10.0 mi NNW 9.2 mph - N/A Rain Light Rain
12:35 PM 38.8 °F 33.2 °F 36.9 °F 93% 30.04 in 4.0 mi North 8.1 mph - N/A   Light Drizzle
12:55 PM 39.2 °F 34.2 °F 37.0 °F 92% 30.05 in 2.5 mi NNW 6.9 mph - N/A   Drizzle
1:15 PM 39.4 °F 32.7 °F 37.4 °F 93% 30.04 in 3.0 mi NNW 10.4 mph - N/A Rain Rain
1:35 PM 39.2 °F 33.0 °F 37.0 °F 92% 30.04 in 4.0 mi NNW 9.2 mph - 0.01 in Rain Light Rain
1:55 PM 39.2 °F 34.2 °F 37.0 °F 92% 30.04 in 5.0 mi NNW 6.9 mph - 0.01 in   Light Drizzle
2:15 PM 39.4 °F 33.2 °F 37.6 °F 93% 30.04 in 5.0 mi NNW 9.2 mph - N/A   Drizzle
2:35 PM 39.7 °F 35.6 °F 37.9 °F 93% 30.04 in 5.0 mi NNW 5.8 mph - N/A Rain Rain
2:55 PM 39.9 °F 35.1 °F 38.1 °F 93% 30.04 in 4.0 mi NNW 6.9 mph - N/A Rain Light Rain
3:15 PM 40.1 °F 35.3 °F 38.5 °F 94% 30.05 in 3.0 mi NNW 6.9 mph - 0.02 in Rain Rain
3:35 PM 40.1 °F 36.1 °F 38.3 °F 93% 30.06 in 4.0 mi NNW 5.8 mph - 0.05 in Rain Rain
3:55 PM 40.1 °F 36.1 °F 38.3 °F 93% 30.07 in 4.0 mi NNW 5.8 mph - 0.09 in Rain Rain
4:15 PM 40.3 °F 36.3 °F 38.7 °F 94% 30.07 in 4.0 mi NNW 5.8 mph - 0.03 in Rain Rain
4:35 PM 40.6 °F 36.7 °F 39.2 °F 95% 30.07 in 4.0 mi NNW 5.8 mph - 0.03 in Rain Light Rain
4:55 PM 41.0 °F 36.4 °F 39.2 °F 93% 30.07 in 5.0 mi NNW 6.9 mph - 0.04 in Rain Rain
5:15 PM 41.0 °F 37.1 °F 39.4 °F 94% 30.09 in 5.0 mi NNW 5.8 mph - N/A Rain Light Rain
5:35 PM 41.0 °F 37.1 °F 39.2 °F 93% 30.10 in 5.0 mi NW 5.8 mph - N/A   Overcast
5:55 PM 40.8 °F - 39.2 °F 94% 30.11 in 5.0 mi Calm Calm - N/A   Overcast
6:15 PM 40.5 °F - 39.0 °F 95% 30.12 in 5.0 mi Calm Calm - N/A   Overcast
6:35 PM 40.3 °F - 38.7 °F 94% 30.13 in 5.0 mi Calm Calm - N/A   Overcast
6:55 PM 40.3 °F - 38.8 °F 95% 30.13 in 4.0 mi Calm Calm - N/A   Overcast
7:15 PM 39.7 °F - 38.3 °F 95% 30.14 in 4.0 mi Calm Calm - N/A   Scattered Clouds
7:35 PM 39.4 °F - 38.1 °F 95% 30.14 in 4.0 mi Calm Calm - N/A   Clear
7:55 PM 38.7 °F - 37.4 °F 95% 30.15 in 1.0 mi Calm Calm - N/A   Mist
8:15 PM 37.4 °F - 36.3 °F 96% 30.15 in 0.5 mi Calm Calm - N/A Fog Fog
8:35 PM 37.8 °F 35.3 °F 36.7 °F 96% 30.16 in 2.0 mi West 3.5 mph - N/A   Scattered Clouds
8:55 PM 37.4 °F - 36.5 °F 97% 30.17 in 2.0 mi Calm Calm - N/A   Clear
9:15 PM 36.5 °F - 35.6 °F 97% 30.17 in 1.8 mi Calm Calm - N/A   Mist
9:35 PM 36.7 °F - 35.8 °F 97% 30.19 in 3.0 mi Calm Calm - N/A   Clear
9:55 PM 36.7 °F - 35.8 °F 97% 30.20 in 4.0 mi Calm Calm - N/A   Clear
10:15 PM 35.6 °F - 34.5 °F 96% 30.20 in 4.0 mi Calm Calm - N/A   Clear
10:35 PM 35.4 °F - 34.5 °F 97% 30.21 in 5.0 mi Calm Calm - N/A   Clear
10:55 PM 35.1 °F 32.2 °F 34.0 °F 96% 30.22 in 7.0 mi NNW 3.5 mph - N/A   Clear
11:15 PM 34.9 °F 30.8 °F 33.8 °F 96% 30.22 in 7.0 mi NNW 4.6 mph - N/A   Clear
11:35 PM 35.1 °F 31.0 °F 33.8 °F 95% 30.22 in 10.0 mi NNW 4.6 mph - N/A   Clear
11:55 PM 34.9 °F 29.9 °F 33.4 °F 94% 30.23 in 10.0 mi NW 5.8 mph - N/A   Clear